Regional Weather Roundup
Issued by NWS Goodland, KS

Home | Current Version | Previous Version | Graphics & Text | Print | Product List | Glossary On
Versions: 1 2 3 4 5 6 7 8 9 10 11 12 13 14 15 16 17 18 19 20 21 22 23 24 25 26 27 28 29 30 31 32 33 34 35 36 37 38 39 40 41 42 43 44 45 46 47 48 49 50
000
ASUS43 KGLD 012108
RWRGLD

GOODLAND FORECAST AREA HOURLY WEATHER ROUNDUP
NATIONAL WEATHER SERVICE GOODLAND KS
300 PM MDT SUN MAY 01 2016

...OFFICIAL OBSERVATIONS...

CITY           SKY/WX    TMP DP  RH WIND       PRES   REMARKS
GOODLAND KS    CLOUDY    49  31  49 N17G26    30.21R
HILL CITY KS   CLOUDY    49  39  68 N15       30.21R
IMPERIAL NEB   MOSUNNY   52  34  50 N25G33    30.21F
MCCOOK NEB     MOSUNNY   56  36  47 N23G30    30.16F
AKRON CO       MOSUNNY   39  30  70 NE8       30.27R
BURLINGTON CO  CLOUDY    47  30  51 N17       30.23R
LIMON CO       CLOUDY    36  29  75 N10       30.27S
$$

...UNOFFICIAL OBSERVATIONS...

CITY           SKY/WX    TMP DP  RH WIND       PRES   REMARKS
COLBY KS       CLOUDY    48  39  71 NE12      30.21R
LENORA KS        N/A     48  32  54 MISG        N/A
NORTON KS      CLOUDY    48  36  61 N14G23    30.17R
SHARON SPRINGS   N/A     48  38  68 NE12G22     N/A
TRIBUNE KS     CLOUDY    48  37  66 N16       30.23
KIT CARSON CO    N/A     45  31  58 MISG        N/A
YUMA CO          N/A     45  32  59 N12G18      N/A
$$




USA.gov is the U.S. government's official web portal to all federal, state and local government web resources and services.